Regional Weather Roundup
Issued by NWS Newport/Morehead, NC

Home | Current Version | Previous Version | Text Only | Print | Product List | Glossary On
Versions: 1 2 3 4 5 6 7 8 9 10 11 12 13 14 15 16 17 18 19 20 21 22 23 24 25 26 27 28 29 30 31 32 33 34 35 36 37 38 39 40 41 42 43 44 45 46 47 48 49 50
000
ASUS42 KMHX 171922
RWRMHX
WEATHER ROUNDUP FOR EASTERN NORTH CAROLINA
NATIONAL WEATHER SERVICE NEWPORT/MOREHEAD CITY NC
300 PM EDT THU APR 17 2014

NOTE: "FAIR" INDICATES FEW OR NO CLOUDS BELOW 12,000 FEET
WITH NO SIGNIFICANT WEATHER AND/OR OBSTRUCTIONS TO VISIBILITY

NCZ015>017-031-032-045>047-102-103-172000-
NORTH COAST

CITY           SKY/WX    TMP DP  RH WIND       PRES   REMARKS
EDENTON        MOSUNNY   58  42  55 NE10G17   30.51F
ELIZABETH CITY MOSUNNY   55  42  61 NE16G24   30.53F
KITTY HAWK     CLEAR     51  41  69 NE12G26   30.49F
MANTEO         MOSUNNY   51  41  68 NE22G29   30.50F

$$

NCZ045>047-081-094-103-104-172000-
CENTRAL COAST

CITY           SKY/WX    TMP DP  RH WIND       PRES   REMARKS
FRISCO         CLOUDY    53  45  74 NE14G29   30.46F
SWANQUARTER      N/A     57 N/A N/A N13G24    30.44S

$$

NCZ095-097-098-100-101-172000-
SOUTHERN COAST

CITY           SKY/WX    TMP DP  RH WIND       PRES   REMARKS
BEAUFORT       MOSUNNY   62  45  53 N17       30.45S
CEDAR ISLAND     N/A     59 N/A N/A N20G28    30.50S
JACKSONVILLE   MOSUNNY   66  46  48 NE10G18   30.44F
NEWPORT          N/A     61  48  63 NE6         N/A
PINEY ISLAND   MOCLDY    60  47  61 N21G30    30.46F
WILMINGTON     MOSUNNY   70  45  40 NE14G20   30.43F


$$

NCZ011>013-027>030-043-044-078>080-089-090>093-098-172000-
COASTAL PLAIN

CITY           SKY/WX    TMP DP  RH WIND       PRES   REMARKS
AHOSKIE        MOSUNNY   57  40  52 N9        30.52F
CLINTON        MOSUNNY   64  45  50 NE12      30.47F
ELIZABETHTOWN  SUNNY     66  44  44 CALM      30.45S
GOLDSBORO      MOSUNNY   61  43  51 NE8       30.46F
GREENVILLE     MOSUNNY   61  43  51 E7        30.48F
HAVELOCK       MOSUNNY   64  45  49 NE14G23   30.46F
KENANSVILLE    SUNNY     62  41  46 N12G18    30.47F
KINSTON        SUNNY     64  43  45 NE13      30.48F
NEW BERN       MOSUNNY   64  46  52 N13       30.48S
RICHLANDS      MOSUNNY   64  45  48 N8G17     30.45F
ROANOKE RAPIDS NOT AVBL
ROCKY MOUNT      N/A    N/A N/A N/A MISG      30.50F
WASHINGTON     MOSUNNY   62  44  51 N14G20    30.49F
WHITEVILLE     SUNNY     65  43  46 N3        30.43F

$$

AMZ130-135-150-152-154-156-158-170-250-252-270-ANZ085-086-088-633-658-670-172000-
MARINE OBSERVATIONS

STATION/POSITION TIME  TEMP    WIND        PRES    WAVE   SWELL
                       AIR SEA DIR/SP/G            HT/PER HT/PER
                 (UTC) (F)     (DEG/KT/KT) (MB)    (FT/S) (FT/S)
CHESAPEAKE LIGHT 1900   45      40/ 25/ 29 1034.5
BUOY 44014       1900   51 53   30/ 25/ 29 1032.2   11/10   5/10
DUCK             1900   47 51   20/ 25/ 28 1032.1
2E DUCK          1900      50                N/A     8/ 7   2/11
OREGON INLET     1900   50 51   10/ 19/ 25 1032.2
BUOY 44095       1900      49                N/A    10/10   3/11
HATTERAS CG      1900   52 55   10/ 27/ 31 1031.3
DIAMOND BUOY     NOT AVBL
CAPE LOOKOUT     1900   58      10/ 17/ 21 1030.9
BEAUFORT LAB     1900   58 59   10/ 18/ 21 1030.5
30 SE NEW RIVER  1900   58 63   40/ 23/ 27 1030.4    7/ 9   3/ 9
5 SE WRIGHTSVILL 1800   59 60   50/ 14/ 17 1030.8
FRYING PAN BUOY  1900   59 62   50/ 21/ 27 1029.3    8/ 7
BUOY 41001       NOT AVBL
BUOY 41002       NOT AVBL
BUOY 41004       NOT AVBL

$$



USA.gov is the U.S. government's official web portal to all federal, state and local government web resources and services.